Location: Rometta
(44.2000°N, 10.0500°E)
Time: 11:46:56
(UTC+00:00)

Cosmos 1818 - Pass Details

Date: 17 May 2021
Orbit: 771 x 802 km, 65.0° (Epoch: 15 June)

Event Time Altitude Azimuth Distance (km) Brightness Sun altitude
Rises 20:57:37 0° 324° (NW) 3,320 8.5 -18.8°
Reaches altitude 10° 21:00:04 10° 323° (NW) 2,386 7.3 -19.1°
Maximum altitude 21:05:33 79° 239° (WSW) 819 3.6 -19.6°
Enters shadow 21:07:40 39° 158° (SSE) 1,187 4.0 -19.8°
